FW2569 Weather Reports


Display with metric or nautical units.
time (UTC)temp
F
wind
direction
speed
MPH
gust
MPH
rain 1hr
in
rain 24hr
in
rain mn
in
humidity
%
barometer
mb
20201125130035 55 25 6.0 14.0 0.00 0.01 0.01 74 1017.5
20201125124623 56 16 6.0 14.0 0.00 0.01 0.01 73 1017.3
20201125123044 56 342 6.0 11.0 0.01 0.01 0.01 75 1017.4
20201125121625 56 345 4.0 12.0 0.01 0.01 0.01 73 1017.1
20201125114518 58 25 2.0 11.0 0.01 0.01 0.01 74 1016.4
20201125113042 59 21 7.0 12.0 0.00 0.00 0.00 76 1016.2
20201125111710 61 51 3.0 11.0 0.00 0.00 0.00 80 1015.8
20201125110021 62 341 8.0 18.0 0.00 0.00 0.00 75 1015.5
20201125104524 64 333 6.0 17.0 0.00 0.00 0.00 79 1015.3
20201125103154 65 326 5.0 10.0 0.00 0.00 0.00 83 1014.6
20201125101614 65 311 4.0 8.0 0.00 0.00 0.00 82 1014.3
20201125094549 64 240 0.0 1.0 0.00 0.00 0.00 93 1013.6
20201125093155 64 348 0.0 1.0 0.00 0.00 0.00 92 1013.4
20201125091635 63 264 0.0 1.0 0.00 0.00 0.00 92 1013.2
20201125084534 61 231 0.0 4.0 0.00 0.00 0.00 90 1012.9
20201125083032 62 315 6.0 16.0 0.00 0.00 0.00 87 1013.0
20201125081557 65 309 10.0 23.0 0.00 0.00 0.00 83 1013.1
20201125080032 72 296 5.0 9.0 0.00 0.00 0.00 91 1012.6
20201125074714 73 255 2.0 10.0 0.00 0.00 0.00 88 1012.2
20201125073050 74 281 7.0 16.0 0.00 0.00 0.00 86 1012.0
20201125071720 73 243 8.0 13.0 0.00 0.00 0.00 86 1011.0
20201125064638 74 207 14.0 20.0 0.00 0.00 0.00 86 1010.6
20201125063209 74 218 11.0 24.0 0.00 0.00 0.00 86 1010.5
20201125063026 74 208 11.0 24.0 0.00 0.00 0.00 86 1010.5
20201125061608 74 203 11.0 20.0 0.00 0.00 0.00 86 1010.4
20201125060215 74 197 14.0 25.0 0.00 0.00 0.00 86 1010.3
20201125054716 74 185 12.0 23.0 0.00 0.00 0.00 86 1010.1
20201125054519 74 203 11.0 23.0 0.00 0.00 0.00 86 1009.9
20201125053118 73 226 13.0 23.0 0.00 0.00 0.00 87 1009.8
20201125051534 73 216 14.0 21.0 0.00 0.00 0.00 87 1009.8
20201125044610 73 226 9.0 23.0 0.00 0.00 0.00 87 1009.8
20201125043144 73 200 12.0 20.0 0.00 0.00 0.00 87 1009.9
20201125043010 73 192 9.0 20.0 0.00 0.00 0.00 87 1009.9
20201125041614 73 224 11.0 20.0 0.00 0.00 0.00 87 1010.0
20201125040018 73 214 7.0 16.0 0.00 0.00 0.00 87 1010.0
20201125034637 73 226 8.0 16.0 0.00 0.00 0.00 86 1010.1
20201125033049 73 210 11.0 18.0 0.00 0.00 0.00 86 1010.2
20201125031518 73 203 8.0 15.0 0.00 0.00 0.00 86 1010.6
20201125030112 73 207 5.0 9.0 0.00 0.00 0.00 86 1010.8
20201125024809 73 176 5.0 10.0 0.00 0.00 0.00 86 1010.7
20201125023223 73 231 7.0 17.0 0.00 0.00 0.00 85 1010.6
20201125021640 73 195 5.0 9.0 0.00 0.00 0.00 85 1010.4
20201125020141 73 197 5.0 9.0 0.00 0.00 0.00 85 1010.4
20201125014617 73 188 2.0 11.0 0.00 0.00 0.00 84 1010.2
20201125013115 73 204 3.0 13.0 0.00 0.00 0.00 84 1010.0
20201125011552 73 192 6.0 15.0 0.00 0.00 0.00 83 1009.7
20201125004547 74 177 6.0 13.0 0.00 0.00 0.00 81 1009.4
20201125003237 75 166 6.0 15.0 0.00 0.00 0.00 80 1009.1
20201125001702 75 186 10.0 18.0 0.00 0.00 0.00 80 1008.8
20201124234644 76 182 8.0 17.0 0.00 0.00 0.00 76 1008.9
20201124233051 77 191 11.0 18.0 0.00 0.00 0.00 74 1008.6
20201124231712 77 181 10.0 19.0 0.00 0.00 0.00 72 1008.5
20201124230120 78 172 10.0 21.0 0.00 0.00 0.00 71 1008.4
20201124224709 79 182 10.0 19.0 0.00 0.00 0.00 69 1008.3
20201124223059 79 171 9.0 20.0 0.00 0.00 0.00 69 1008.3
20201124221726 79 208 12.0 21.0 0.00 0.00 0.00 69 1008.1
20201124221532 79 235 12.0 21.0 0.00 0.00 0.00 69 1008.1
20201124220048 79 191 10.0 18.0 0.00 0.00 0.00 69 1008.3
20201124214612 79 194 10.0 28.0 0.00 0.00 0.00 69 1008.7
20201124213042 80 176 12.0 20.0 0.00 0.00 0.00 68 1008.9
20201124211719 79 186 13.0 21.0 0.00 0.00 0.00 70 1008.6
20201124210050 79 179 11.0 26.0 0.00 0.00 0.00 69 1009.1
20201124204648 80 143 11.0 21.0 0.00 0.00 0.00 67 1008.9
20201124203038 80 195 14.0 20.0 0.00 0.00 0.00 69 1009.2
20201124201612 80 165 13.0 22.0 0.00 0.00 0.00 68 1009.2
20201124194617 78 155 8.0 17.0 0.00 0.00 0.00 72 1009.9
20201124193312 77 196 7.0 14.0 0.00 0.00 0.00 74 1010.3
20201124191600 75 166 4.0 10.0 0.00 0.00 0.00 78 1010.8
20201124190215 76 212 5.0 14.0 0.00 0.00 0.00 77 1011.2
20201124184515 76 196 11.0 17.0 0.00 0.00 0.00 76 1011.2
20201124183054 76 185 7.0 16.0 0.00 0.00 0.00 74 1011.5
20201124181516 76 184 10.0 19.0 0.00 0.00 0.00 73 1011.8
20201124180048 76 184 8.0 16.0 0.00 0.00 0.00 74 1012.2
20201124174606 76 179 11.0 24.0 0.00 0.00 0.00 72 1012.3
20201124173215 77 211 14.0 23.0 0.00 0.00 0.00 71 1012.4
20201124171529 75 199 9.0 20.0 0.00 0.00 0.00 74 1012.7
20201124164538 73 162 9.0 16.0 0.00 0.00 0.00 81 1013.0
20201124163205 72 139 11.0 19.0 0.00 0.00 0.00 82 1013.1
20201124161638 71 203 12.0 21.0 0.00 0.00 0.00 83 1013.6
20201124160211 71 185 9.0 16.0 0.00 0.00 0.00 84 1013.9
20201124154618 70 203 9.0 16.0 0.00 0.00 0.00 85 1014.2
20201124153205 69 181 6.0 14.0 0.00 0.00 0.00 87 1014.1
20201124151712 68 173 7.0 10.0 0.00 0.00 0.00 89 1014.4
20201124150023 66 164 5.0 11.0 0.00 0.00 0.00 91 1014.6
20201124144626 65 154 4.0 10.0 0.00 0.00 0.00 92 1014.7
20201124143021 64 147 3.0 8.0 0.00 0.00 0.00 93 1014.8
20201124141602 64 145 2.0 7.0 0.00 0.00 0.00 93 1014.9
20201124140221 63 157 0.0 5.0 0.00 0.00 0.00 94 1014.9
20201124134541 62 110 0.0 3.0 0.00 0.00 0.00 94 1014.9